SCP
1 0 1 1 1 1 0 0 0 0 0 0 0 0 0 0 0 0 0 0 0 0 0 0 0 0 0 0 0 0 0 0 0 0 0 0 0 0
1 1 1 1 1 0 0 0 0 0 0 0 0 0 0 0 0 0 0 0 0 0 0 0 0 0 0 0 0 0 0 0 0 0 0 0 0 0
0 0 0 0 1 1 1 0 0 0 0 0 0 0 0 0 0 0 0 0 0 0 0 0 0 0 0 0 0 0 0 0 0 0 0 0 0 0
0 0 0 0 0 0 0 0 0 0 1 0 0 0 0 0 0 0 0 0 0 0 0 0 0 0 0 0 0 0 0 0 0 0 0 0 0 0
0 0 0 0 0 0 0 0 0 0 0 0 0 0 0 0 0 0 0 0 0 0 0 0 0 0 0 0 0 0 0 0 0 0 0 0 0 0
0 0 0 0 0 0 0 0 0 0 0 0 0 0 0 0 0 0 0 0 0 0 0 0 0 0 0 0 0 0 0 0 0 0 0 0 0 0
0 0 0 0 0 0 0 0 0 0 0 0 0 0 0 0 0 0 0 0 0 0 0 0 0 0 0 0 0 0 0 0 0 0 0 0 0 0
0 0 0 0 0 0 0 0 0 0 0 0 0 0 0 0 0 0 0 0 0 0 0 0 0 0 0 0 0 0 0 0 0 0 0 0 0 0
0 0 0 0 0 0 0 0 0 0 0 0 0 0 0 0 0 0 0 0 0 0 0 0 0 0 0 0 0 0 0 0 0 0 0 0 0 0
0 0 0 0 0 0 0 0 0 0 0 0 0 0 0 0 0 0 0 0 0 0 0 0 0 0 0 0 0 0 0 0 0 0 0 0 0 0
0 0 0 0 0 0 0 0 0 0 0 0 0 0 0 0 0 0 0 0 0 0 0 0 0 0 0 0 0 0 0 0 0 0 0 0 0 0
0 0 0 0 0 0 -0 -0 0 0 0 0 0 0 0 0 0 0 0 0 0 0 0 0 0 0 0 0 0 0 0 0 0 0 0 0 0 0
-0 -0 -0 0 0 0 0 0 0 0 0 0 -0 0 0 0 0 0 0 0 0 0 0 0 0 0 0 0 0 0 0 0 0 0 0 0 0 0
-0 -0 -0 0 0 0 0 0 0 0 0 0 0 0 0 0 0 0 0 0 0 0 0 0 0 0 0 0 0 0 0 0 0 0 0 0 0 0
0 0 0 0 0 0 0 0 0 0 0 0 0 0 0 0 0 0 0 0 0 0 0 0 0 0 0 0 0 0 0 0 0 0 0 0 0 0
0 0 0 0 0 0 0 0 0 0 0 0 0 0 0 0 0 0 0 0 0 0 0 0 0 0 0 0 0 0 0 0 0 0 0 0 0 0
0 0 0 0 0 0 0 0 0 0 0 0 0 0 0 0 0 0 0 0 0 0 0 0 0 0 0 0 0 0 0 0 0 0 0 0 0 0
0 0 0 0 0 0 0 0 0 0 0 0 0 0 0 0 0 0 0 0 0 0 0 0 0 0 0 0 0 0 0 0 0 0 0 0 0 0
0 0 0 0 0 0 0 0 0 0 0 0 0 0 0 0 0 0 0 0 0 0 0 0 0 0 0 0 0 0 0 0 0 0 0 0 0 0
0 0 0 0 0 0 0 0 0 0 0 0 0 0 0 0 0 0 0 0 0 0 0 0 0 0 0 0 0 0 0 0 0 0 0 0 0 0
0 0 0 0 0 0 0 0 0 0 0 0 0 0 0 0 0 0 0 0 0 0 0 0 0 0 0 0 0 0 0 0 0 0 0 0 0 0
0 0 0 0 0 0 0 0 0 0 0 0 0 0 0 0 0 0 0 0 0 0 0 0 0 0 0 0 0 0 0 0 0 0 0 0 0 0
0 0 0 0 0 0 0 0 0 0 0 0 0 0 0 0 0 0 0 0 0 0 0 0 0 0 0 0 0 0 0 0 0 0 0 0 0 0
Wind_Speed_500mb
46 48 58 60 76 74 77 80 65 55 62 63 65 67 64 63 63 54 51 53 52 55 65 70 70 79 95 106 85 81 78 75 73 64 64 70 69 68
43 55 62 66 66 67 79 81 68 73 70 67 63 60 58 63 62 62 60 56 55 55 58 66 70 76 84 107 90 89 77 75 77 75 68 63 68 68
37 40 45 56 69 71 79 81 89 76 93 91 80 71 68 72 69 68 68 67 62 55 57 60 66 74 78 98 92 91 86 81 80 79 75 71 63 64
33 32 41 51 58 52 51 65 78 72 78 85 69 79 83 83 79 73 75 70 68 64 62 59 68 74 84 95 100 102 91 87 83 82 81 78 77 74
21 23 29 36 42 51 60 59 56 66 81 83 81 84 83 79 70 71 74 72 79 79 67 69 67 73 82 98 111 103 103 99 93 87 85 83 81 79
26 21 22 28 33 40 49 47 50 59 55 61 69 70 81 77 87 79 83 89 84 77 79 79 72 73 79 90 98 117 108 101 102 94 90 85 83 80
32 29 31 32 29 32 41 45 53 66 51 59 52 74 83 72 76 63 84 87 84 90 81 80 76 74 81 85 93 98 112 106 105 105 95 95 90 86
38 38 34 37 38 35 32 36 37 44 45 39 47 52 41 53 79 84 94 80 83 93 90 83 71 77 81 84 84 87 112 123 113 108 102 98 94 97
43 43 46 44 44 45 42 40 39 41 45 44 42 43 51 55 52 52 88 97 97 94 83 81 74 74 70 68 72 76 97 116 113 99 101 100 103 103
50 52 54 53 53 55 52 46 42 41 41 42 41 40 43 52 60 65 73 85 94 95 74 80 73 72 69 67 70 81 93 100 101 100 105 105 103 98
53 55 56 58 64 60 58 57 55 47 43 42 41 43 40 43 51 67 66 54 90 81 82 81 81 78 73 80 89 87 88 98 105 107 106 99 98 96
53 52 54 59 59 60 60 62 63 63 65 57 46 39 38 41 37 38 48 63 47 62 82 85 83 87 81 89 94 94 94 98 100 101 105 101 98 100
62 63 62 60 58 55 54 53 55 58 57 57 55 48 41 36 34 31 32 38 51 47 32 84 95 94 90 56 96 101 104 105 104 102 99 91 90 92
58 54 57 55 54 53 52 50 49 53 55 55 56 56 55 52 44 36 31 30 35 47 50 40 76 87 101 96 72 84 97 100 97 90 87 87 93 93
49 52 55 52 50 51 50 49 51 53 56 59 59 57 53 50 48 40 32 31 30 34 44 50 54 71 77 93 88 87 90 94 89 85 80 75 74 73
48 50 48 47 47 48 49 49 49 49 50 54 57 55 51 48 46 43 43 33 25 27 29 33 39 50 66 70 70 69 77 82 85 80 74 65 60 56
45 48 51 52 53 52 51 47 47 49 50 50 54 58 57 49 44 40 36 33 27 22 23 18 19 28 38 45 52 52 64 68 63 75 64 60 56 56
50 52 56 57 54 50 49 48 45 44 48 45 45 47 54 54 46 37 29 29 28 25 21 19 11 5 14 16 21 39 50 54 54 58 54 54 51 45
47 45 47 53 54 49 41 42 44 41 37 40 37 42 42 44 46 45 37 27 23 20 17 15 18 14 13 22 20 13 30 39 50 50 47 49 51 46
51 49 47 46 52 51 45 40 40 40 34 35 37 33 38 41 42 41 44 39 22 19 18 17 13 3 24 24 35 34 28 42 48 51 52 52 47 45
54 52 50 49 51 49 44 40 38 39 36 29 30 32 30 38 37 33 31 36 28 18 21 26 22 8 16 30 43 43 40 33 37 43 46 50 49 42
59 52 52 52 51 50 45 43 43 41 35 24 26 27 29 33 34 31 27 24 26 26 21 16 14 14 21 31 43 45 40 37 36 40 42 39 39 28
58 55 50 55 55 55 48 42 39 37 34 23 20 24 24 30 30 30 26 22 19 15 23 17 17 18 24 29 32 35 36 34 32 32 29 28 19 20
Wind_Direction_500mb
249 259 256 262 253 252 255 254 253 257 253 259 257 269 265 260 261 251 263 258 260 258 255 249 246 239 238 237 220 223 227 229 230 238 236 234 235 236
253 258 265 263 262 266 264 257 254 271 256 260 267 276 272 260 262 256 255 253 259 267 262 247 244 242 237 235 226 224 222 229 230 231 237 240 238 238
253 254 255 264 272 270 275 271 259 251 252 261 260 272 277 267 258 256 252 250 260 268 259 249 247 244 235 232 231 229 225 229 229 230 231 233 232 235
266 277 269 267 261 268 268 273 273 266 260 250 262 276 262 267 266 255 248 252 265 265 259 258 256 245 235 232 231 228 228 228 229 231 231 231 232 234
304 297 288 282 275 269 267 262 275 271 265 269 279 278 260 261 262 240 244 251 267 265 257 257 256 250 239 238 236 228 227 230 229 230 231 232 234 237
14 354 338 321 316 310 280 284 277 267 268 270 268 258 261 265 261 242 249 266 265 256 259 259 253 249 245 239 240 239 226 228 229 229 231 233 235 236
29 15 8 11 354 344 330 317 306 294 278 258 263 266 255 259 258 254 269 259 265 261 260 257 250 246 245 243 242 246 222 228 230 233 230 232 233 236
36 26 18 9 13 9 358 341 329 324 310 309 285 269 267 263 275 270 253 242 242 259 257 252 246 245 246 246 242 237 226 225 231 234 234 235 235 236
31 18 18 15 9 13 15 5 344 328 327 322 304 295 283 267 269 260 245 255 245 254 258 250 251 247 247 242 242 236 228 228 233 232 236 235 240 240
22 15 10 7 7 4 360 358 1 349 337 325 317 312 297 288 279 272 265 251 255 244 247 247 246 247 244 242 238 234 230 231 234 234 236 241 246 246
19 16 9 6 4 358 354 352 352 349 352 343 335 316 310 301 293 279 272 244 232 240 240 245 246 244 242 243 241 239 233 231 233 238 241 240 239 243
11 8 8 5 1 356 356 354 348 348 345 343 341 333 326 306 300 293 276 268 263 243 239 238 236 240 235 238 233 227 228 233 235 239 245 249 246 246
9 6 5 0 355 351 351 354 352 341 342 343 342 342 340 331 318 306 294 279 269 265 236 220 228 235 227 230 231 232 232 237 237 242 245 244 242 240
6 1 358 353 349 350 350 351 346 342 343 344 346 348 347 345 341 326 312 296 288 274 262 254 227 228 231 228 226 232 230 235 238 238 239 237 237 240
359 353 350 348 345 349 351 349 351 354 354 354 354 352 350 344 338 334 323 305 296 289 275 264 252 242 232 228 230 227 229 226 229 233 232 232 233 234
356 350 344 343 344 346 350 355 1 4 3 360 356 351 344 344 344 344 342 338 311 298 288 272 257 248 244 245 235 228 218 212 217 218 220 218 217 216
353 348 350 352 352 352 354 358 359 2 1 3 359 358 355 349 350 349 351 351 356 348 331 309 276 252 237 238 235 231 226 220 212 208 202 197 195 200
354 359 359 1 1 356 354 353 357 360 3 358 2 4 5 1 355 352 351 358 358 357 359 350 343 268 218 206 206 213 208 213 207 199 193 190 181 187
5 5 2 357 359 357 351 352 350 353 353 358 357 4 6 1 2 2 358 354 2 6 6 337 326 285 232 135 124 170 198 189 186 179 186 187 176 168
3 0 354 347 348 350 348 344 342 344 347 355 1 358 10 7 2 4 4 359 3 27 38 33 29 95 155 140 124 125 173 170 170 165 168 171 164 162
352 353 351 344 345 341 339 340 336 337 342 346 358 7 7 9 3 360 5 10 5 20 39 40 29 57 140 145 131 138 143 157 164 162 162 163 160 161
349 343 345 340 340 345 339 340 342 343 341 339 355 360 12 20 2 356 352 5 16 15 30 47 48 138 144 141 131 131 138 144 145 151 153 159 154 160
343 341 339 341 344 346 345 345 348 349 348 339 341 359 354 10 7 349 343 352 10 7 28 48 62 96 126 129 128 127 130 136 142 152 146 146 136 124
Wind_Speed_850mb
46 48 58 60 76 74 77 80 65 55 62 63 65 67 64 63 63 54 51 53 52 55 65 70 70 79 95 106 85 81 78 75 73 64 64 70 69 68
43 55 62 66 66 67 79 81 68 73 70 67 63 60 58 63 62 62 60 56 55 55 58 66 70 76 84 107 90 89 77 75 77 75 68 63 68 68
37 40 45 56 69 71 79 81 89 76 93 91 80 71 68 72 69 68 68 67 62 55 57 60 66 74 78 98 92 91 86 81 80 79 75 71 63 64
33 32 41 51 58 52 51 65 78 72 78 85 69 79 83 83 79 73 75 70 68 64 62 59 68 74 84 95 100 102 91 87 83 82 81 78 77 74
21 23 29 36 42 51 60 59 56 66 81 83 81 84 83 79 70 71 74 72 79 79 67 69 67 73 82 98 111 103 103 99 93 87 85 83 81 79
26 21 22 28 33 40 49 47 50 59 55 61 69 70 81 77 87 79 83 89 84 77 79 79 72 73 79 90 98 117 108 101 102 94 90 85 83 80
32 29 31 32 29 32 41 45 53 66 51 59 52 74 83 72 76 63 84 87 84 90 81 80 76 74 81 85 93 98 112 106 105 105 95 95 90 86
38 38 34 37 38 35 32 36 37 44 45 39 47 52 41 53 79 84 94 80 83 93 90 83 71 77 81 84 84 87 112 123 113 108 102 98 94 97
43 43 46 44 44 45 42 40 39 41 45 44 42 43 51 55 52 52 88 97 97 94 83 81 74 74 70 68 72 76 97 116 113 99 101 100 103 103
50 52 54 53 53 55 52 46 42 41 41 42 41 40 43 52 60 65 73 85 94 95 74 80 73 72 69 67 70 81 93 100 101 100 105 105 103 98
53 55 56 58 64 60 58 57 55 47 43 42 41 43 40 43 51 67 66 54 90 81 82 81 81 78 73 80 89 87 88 98 105 107 106 99 98 96
53 52 54 59 59 60 60 62 63 63 65 57 46 39 38 41 37 38 48 63 47 62 82 85 83 87 81 89 94 94 94 98 100 101 105 101 98 100
62 63 62 60 58 55 54 53 55 58 57 57 55 48 41 36 34 31 32 38 51 47 32 84 95 94 90 56 96 101 104 105 104 102 99 91 90 92
58 54 57 55 54 53 52 50 49 53 55 55 56 56 55 52 44 36 31 30 35 47 50 40 76 87 101 96 72 84 97 100 97 90 87 87 93 93
49 52 55 52 50 51 50 49 51 53 56 59 59 57 53 50 48 40 32 31 30 34 44 50 54 71 77 93 88 87 90 94 89 85 80 75 74 73
48 50 48 47 47 48 49 49 49 49 50 54 57 55 51 48 46 43 43 33 25 27 29 33 39 50 66 70 70 69 77 82 85 80 74 65 60 56
45 48 51 52 53 52 51 47 47 49 50 50 54 58 57 49 44 40 36 33 27 22 23 18 19 28 38 45 52 52 64 68 63 75 64 60 56 56
50 52 56 57 54 50 49 48 45 44 48 45 45 47 54 54 46 37 29 29 28 25 21 19 11 5 14 16 21 39 50 54 54 58 54 54 51 45
47 45 47 53 54 49 41 42 44 41 37 40 37 42 42 44 46 45 37 27 23 20 17 15 18 14 13 22 20 13 30 39 50 50 47 49 51 46
51 49 47 46 52 51 45 40 40 40 34 35 37 33 38 41 42 41 44 39 22 19 18 17 13 3 24 24 35 34 28 42 48 51 52 52 47 45
54 52 50 49 51 49 44 40 38 39 36 29 30 32 30 38 37 33 31 36 28 18 21 26 22 8 16 30 43 43 40 33 37 43 46 50 49 42
59 52 52 52 51 50 45 43 43 41 35 24 26 27 29 33 34 31 27 24 26 26 21 16 14 14 21 31 43 45 40 37 36 40 42 39 39 28
58 55 50 55 55 55 48 42 39 37 34 23 20 24 24 30 30 30 26 22 19 15 23 17 17 18 24 29 32 35 36 34 32 32 29 28 19 20
Wind_Direction_850mb
249 259 256 262 253 252 255 254 253 257 253 259 257 269 265 260 261 251 263 258 260 258 255 249 246 239 238 237 220 223 227 229 230 238 236 234 235 236
253 258 265 263 262 266 264 257 254 271 256 260 267 276 272 260 262 256 255 253 259 267 262 247 244 242 237 235 226 224 222 229 230 231 237 240 238 238
253 254 255 264 272 270 275 271 259 251 252 261 260 272 277 267 258 256 252 250 260 268 259 249 247 244 235 232 231 229 225 229 229 230 231 233 232 235
266 277 269 267 261 268 268 273 273 266 260 250 262 276 262 267 266 255 248 252 265 265 259 258 256 245 235 232 231 228 228 228 229 231 231 231 232 234
304 297 288 282 275 269 267 262 275 271 265 269 279 278 260 261 262 240 244 251 267 265 257 257 256 250 239 238 236 228 227 230 229 230 231 232 234 237
14 354 338 321 316 310 280 284 277 267 268 270 268 258 261 265 261 242 249 266 265 256 259 259 253 249 245 239 240 239 226 228 229 229 231 233 235 236
29 15 8 11 354 344 330 317 306 294 278 258 263 266 255 259 258 254 269 259 265 261 260 257 250 246 245 243 242 246 222 228 230 233 230 232 233 236
36 26 18 9 13 9 358 341 329 324 310 309 285 269 267 263 275 270 253 242 242 259 257 252 246 245 246 246 242 237 226 225 231 234 234 235 235 236
31 18 18 15 9 13 15 5 344 328 327 322 304 295 283 267 269 260 245 255 245 254 258 250 251 247 247 242 242 236 228 228 233 232 236 235 240 240
22 15 10 7 7 4 360 358 1 349 337 325 317 312 297 288 279 272 265 251 255 244 247 247 246 247 244 242 238 234 230 231 234 234 236 241 246 246
19 16 9 6 4 358 354 352 352 349 352 343 335 316 310 301 293 279 272 244 232 240 240 245 246 244 242 243 241 239 233 231 233 238 241 240 239 243
11 8 8 5 1 356 356 354 348 348 345 343 341 333 326 306 300 293 276 268 263 243 239 238 236 240 235 238 233 227 228 233 235 239 245 249 246 246
9 6 5 0 355 351 351 354 352 341 342 343 342 342 340 331 318 306 294 279 269 265 236 220 228 235 227 230 231 232 232 237 237 242 245 244 242 240
6 1 358 353 349 350 350 351 346 342 343 344 346 348 347 345 341 326 312 296 288 274 262 254 227 228 231 228 226 232 230 235 238 238 239 237 237 240
359 353 350 348 345 349 351 349 351 354 354 354 354 352 350 344 338 334 323 305 296 289 275 264 252 242 232 228 230 227 229 226 229 233 232 232 233 234
356 350 344 343 344 346 350 355 1 4 3 360 356 351 344 344 344 344 342 338 311 298 288 272 257 248 244 245 235 228 218 212 217 218 220 218 217 216
353 348 350 352 352 352 354 358 359 2 1 3 359 358 355 349 350 349 351 351 356 348 331 309 276 252 237 238 235 231 226 220 212 208 202 197 195 200
354 359 359 1 1 356 354 353 357 360 3 358 2 4 5 1 355 352 351 358 358 357 359 350 343 268 218 206 206 213 208 213 207 199 193 190 181 187
5 5 2 357 359 357 351 352 350 353 353 358 357 4 6 1 2 2 358 354 2 6 6 337 326 285 232 135 124 170 198 189 186 179 186 187 176 168
3 0 354 347 348 350 348 344 342 344 347 355 1 358 10 7 2 4 4 359 3 27 38 33 29 95 155 140 124 125 173 170 170 165 168 171 164 162
352 353 351 344 345 341 339 340 336 337 342 346 358 7 7 9 3 360 5 10 5 20 39 40 29 57 140 145 131 138 143 157 164 162 162 163 160 161
349 343 345 340 340 345 339 340 342 343 341 339 355 360 12 20 2 356 352 5 16 15 30 47 48 138 144 141 131 131 138 144 145 151 153 159 154 160
343 341 339 341 344 346 345 345 348 349 348 339 341 359 354 10 7 349 343 352 10 7 28 48 62 96 126 129 128 127 130 136 142 152 146 146 136 124